TimeCDT,TemperatureF,Dew PointF,Humidity,Sea Level PressureIn,VisibilityMPH,Wind Direction,Wind SpeedMPH,Gust SpeedMPH,PrecipitationIn,Events,Conditions,WindDirDegrees,DateUTC
12:54 AM,19.0,12.0,74,30.13,10.0,WNW,9.2,-,N/A,,Clear,300,2013-03-11 05:54:00
1:54 AM,19.0,12.9,77,30.14,10.0,WNW,9.2,-,N/A,,Clear,300,2013-03-11 06:54:00
2:54 AM,19.0,12.0,74,30.12,10.0,NW,6.9,-,N/A,,Clear,310,2013-03-11 07:54:00
3:54 AM,19.0,12.0,74,30.08,10.0,WNW,6.9,-,N/A,,Clear,300,2013-03-11 08:54:00
4:54 AM,17.1,12.0,81,30.06,10.0,WNW,3.5,-,N/A,,Clear,290,2013-03-11 09:54:00
5:54 AM,18.0,14.0,84,30.05,10.0,West,9.2,-,N/A,,Clear,270,2013-03-11 10:54:00
6:54 AM,19.0,15.1,85,30.04,10.0,WNW,5.8,-,N/A,,Clear,290,2013-03-11 11:54:00
7:54 AM,19.0,15.1,85,30.05,10.0,West,6.9,-,N/A,,Clear,280,2013-03-11 12:54:00
8:54 AM,23.0,18.0,81,30.06,10.0,West,5.8,-,N/A,,Clear,270,2013-03-11 13:54:00
9:54 AM,30.9,21.0,67,30.05,10.0,West,9.2,-,N/A,,Clear,280,2013-03-11 14:54:00
10:54 AM,36.0,21.0,55,30.04,10.0,West,6.9,-,N/A,,Clear,280,2013-03-11 15:54:00
11:54 AM,44.1,21.9,42,30.02,10.0,WNW,6.9,-,N/A,,Clear,290,2013-03-11 16:54:00
12:54 PM,51.1,24.1,35,30.01,10.0,NW,12.7,18.4,N/A,,Clear,310,2013-03-11 17:54:00
1:54 PM,55.9,23.0,28,29.96,10.0,NNW,9.2,-,N/A,,Clear,330,2013-03-11 18:54:00
2:54 PM,57.0,21.9,26,29.95,10.0,NNW,8.1,21.9,N/A,,Clear,330,2013-03-11 19:54:00
3:54 PM,59.0,23.0,25,29.93,10.0,North,9.2,-,N/A,,Clear,10,2013-03-11 20:54:00
4:54 PM,60.1,23.0,24,29.92,10.0,NNE,11.5,-,N/A,,Mostly Cloudy,30,2013-03-11 21:54:00
5:54 PM,59.0,23.0,25,29.92,10.0,NE,9.2,-,N/A,,Clear,40,2013-03-11 22:54:00
6:54 PM,57.0,24.1,28,29.94,10.0,ENE,8.1,-,N/A,,Mostly Cloudy,60,2013-03-11 23:54:00
7:54 PM,51.1,25.0,36,29.96,10.0,ENE,6.9,-,N/A,,Overcast,60,2013-03-12 00:54:00
8:54 PM,48.0,27.0,44,29.98,10.0,NE,9.2,-,N/A,,Overcast,50,2013-03-12 01:54:00
9:54 PM,46.9,28.9,50,30.02,10.0,NNE,12.7,-,N/A,,Overcast,20,2013-03-12 02:54:00
10:54 PM,45.0,28.9,53,30.03,10.0,NNE,12.7,-,N/A,,Mostly Cloudy,20,2013-03-12 03:54:00
11:54 PM,43.0,28.0,56,30.06,10.0,North,16.1,-,N/A,,Overcast,10,2013-03-12 04:54:00